N7353P BGSF-BGKK

Flight info

Callsign N7353P
Flight time N/A
Altitude 11000
Route WUTAN1B WUTAN UW28 MASIK DCT SOMEV
Aircraft PA24/L-SDGRY/S

Departure

Time 2026-05-07 14:25
Airport Kangerlussuaq International Airport (BGSF)

Arrival

Time N/A
Airport Kulusuk Airport (BGKK)
Time Latitude Longitude Altitude Speed Heading
2026-05-07 14:20 67.00742 -50.71694 164 ft 0 kts 149°
2026-05-07 14:22 67.00776 -50.71571 165 ft 13 kts 51°
2026-05-07 14:22 67.00860 -50.71290 169 ft 30 kts 49°
2026-05-07 14:22 67.00973 -50.70917 174 ft 26 kts 56°
2026-05-07 14:23 67.01074 -50.70519 178 ft 28 kts 55°
2026-05-07 14:23 67.01188 -50.70109 184 ft 29 kts 56°
2026-05-07 14:23 67.01291 -50.69659 195 ft 30 kts 63°
2026-05-07 14:23 67.01408 -50.69234 201 ft 27 kts 39°
2026-05-07 14:24 67.01527 -50.69043 201 ft 20 kts 25°
2026-05-07 14:24 67.01629 -50.69115 198 ft 8 kts 297°
2026-05-07 14:24 67.01618 -50.69286 197 ft 24 kts 239°
2026-05-07 14:24 67.01429 -50.70160 205 ft 80 kts 238°
2026-05-07 14:25 67.01141 -50.71452 373 ft 87 kts 240°
2026-05-07 14:25 67.00798 -50.72734 607 ft 90 kts 240°
2026-05-07 14:25 67.00505 -50.74184 834 ft 96 kts 243°
2026-05-07 14:25 67.00181 -50.75711 1059 ft 97 kts 240°
2026-05-07 14:26 66.99826 -50.77294 1265 ft 103 kts 238°
2026-05-07 14:26 66.99445 -50.78779 1566 ft 100 kts 232°
2026-05-07 14:26 66.99017 -50.80191 1812 ft 100 kts 229°
2026-05-07 14:26 66.98570 -50.81591 2047 ft 100 kts 229°
2026-05-07 14:27 66.98132 -50.82963 2286 ft 101 kts 230°
2026-05-07 14:27 66.97692 -50.84380 2510 ft 102 kts 232°
2026-05-07 14:27 66.97286 -50.85873 2707 ft 104 kts 239°
2026-05-07 14:27 66.96811 -50.87254 2859 ft 109 kts 206°
2026-05-07 14:28 66.96087 -50.87449 3090 ft 103 kts 161°
2026-05-07 14:28 66.95510 -50.86449 3267 ft 103 kts 122°
2026-05-07 14:28 66.95180 -50.84911 3533 ft 94 kts 118°
2026-05-07 14:28 66.94779 -50.83525 3671 ft 100 kts 120°
2026-05-07 14:29 66.94485 -50.81988 3899 ft 94 kts 102°
2026-05-07 14:29 66.94404 -50.80287 4046 ft 97 kts 88°
2026-05-07 14:29 66.94422 -50.78620 4250 ft 94 kts 85°
2026-05-07 14:29 66.94426 -50.76901 4400 ft 97 kts 91°
2026-05-07 14:30 66.94364 -50.75249 4592 ft 94 kts 95°
2026-05-07 14:30 66.94268 -50.73561 4757 ft 96 kts 97°
2026-05-07 14:30 66.94179 -50.71872 4930 ft 96 kts 96°
2026-05-07 14:30 66.94105 -50.70209 5114 ft 93 kts 95°
2026-05-07 14:31 66.94044 -50.68544 5257 ft 97 kts 95°
2026-05-07 14:31 66.93975 -50.66855 5433 ft 95 kts 96°
2026-05-07 14:31 66.93901 -50.65158 5578 ft 98 kts 96°
2026-05-07 14:31 66.93824 -50.63437 5760 ft 96 kts 96°
2026-05-07 14:32 66.93754 -50.61728 5904 ft 98 kts 97°
2026-05-07 14:32 66.93677 -50.60006 6079 ft 97 kts 97°
2026-05-07 14:32 66.93606 -50.58282 6228 ft 98 kts 98°
2026-05-07 14:32 66.93528 -50.56553 6395 ft 99 kts 98°
2026-05-07 14:33 66.93450 -50.54798 6543 ft 100 kts 98°
2026-05-07 14:33 66.93375 -50.53038 6697 ft 100 kts 98°
2026-05-07 14:33 66.93295 -50.51264 6834 ft 101 kts 98°
2026-05-07 14:33 66.93219 -50.49496 6977 ft 100 kts 98°
2026-05-07 14:34 66.93141 -50.47729 7118 ft 100 kts 98°
2026-05-07 14:34 66.93064 -50.45965 7256 ft 100 kts 98°
2026-05-07 14:34 66.92987 -50.44198 7391 ft 100 kts 98°
2026-05-07 14:34 66.92906 -50.42428 7527 ft 100 kts 98°
2026-05-07 14:35 66.92828 -50.40655 7656 ft 101 kts 98°
2026-05-07 14:35 66.92748 -50.38875 7787 ft 101 kts 97°
2026-05-07 14:35 66.92673 -50.37095 7920 ft 101 kts 97°
2026-05-07 14:35 66.92595 -50.35313 8045 ft 101 kts 97°
2026-05-07 14:36 66.92512 -50.33532 8185 ft 101 kts 97°
2026-05-07 14:36 66.92437 -50.31823 8334 ft 99 kts 97°
2026-05-07 14:36 66.92359 -50.30024 8445 ft 100 kts 97°
2026-05-07 14:36 66.92279 -50.28278 8582 ft 100 kts 97°
2026-05-07 14:37 66.92196 -50.26505 8693 ft 100 kts 97°
2026-05-07 14:37 66.92037 -50.23002 8936 ft 100 kts 97°
2026-05-07 14:37 66.91958 -50.21242 9062 ft 100 kts 97°
2026-05-07 14:38 66.91877 -50.19467 9177 ft 101 kts 97°
2026-05-07 14:38 66.91796 -50.17700 9292 ft 101 kts 97°
2026-05-07 14:38 66.91714 -50.15923 9401 ft 101 kts 97°
2026-05-07 14:38 66.91632 -50.14158 9510 ft 100 kts 97°
2026-05-07 14:39 66.91550 -50.12387 9620 ft 101 kts 97°
2026-05-07 14:39 66.91470 -50.10615 9732 ft 101 kts 97°
2026-05-07 14:39 66.91387 -50.08838 9841 ft 101 kts 97°
2026-05-07 14:39 66.91303 -50.07062 9944 ft 101 kts 97°
2026-05-07 14:40 66.91222 -50.05271 10040 ft 101 kts 97°
2026-05-07 14:40 66.91140 -50.03489 10133 ft 101 kts 97°
2026-05-07 14:40 66.91055 -50.01704 10219 ft 102 kts 97°
2026-05-07 14:40 66.90962 -49.99893 10311 ft 103 kts 96°
2026-05-07 14:41 66.90880 -49.98072 10401 ft 103 kts 96°
2026-05-07 14:41 66.90799 -49.96253 10492 ft 103 kts 96°
2026-05-07 14:41 66.90715 -49.94432 10585 ft 103 kts 96°
2026-05-07 14:41 66.90629 -49.92614 10677 ft 104 kts 96°
2026-05-07 14:42 66.90540 -49.90794 10761 ft 103 kts 96°
2026-05-07 14:42 66.90453 -49.88975 10844 ft 104 kts 96°
2026-05-07 14:42 66.90366 -49.87155 10930 ft 103 kts 96°
2026-05-07 14:42 66.90280 -49.85336 11009 ft 104 kts 96°
2026-05-07 14:43 66.90192 -49.83491 11038 ft 109 kts 96°
2026-05-07 14:43 66.90094 -49.81532 11053 ft 114 kts 97°
2026-05-07 14:43 66.89990 -49.79480 11050 ft 119 kts 97°
2026-05-07 14:43 66.89887 -49.77340 11036 ft 124 kts 96°
2026-05-07 14:44 66.89784 -49.75158 11036 ft 124 kts 96°
2026-05-07 14:44 66.89681 -49.72976 11037 ft 124 kts 96°
2026-05-07 14:44 66.89575 -49.70784 11038 ft 125 kts 96°
2026-05-07 14:44 66.89469 -49.68587 11043 ft 125 kts 96°
2026-05-07 14:45 66.89359 -49.66353 11047 ft 129 kts 97°
2026-05-07 14:45 66.89231 -49.64064 11041 ft 131 kts 98°
2026-05-07 14:45 66.89083 -49.61762 11046 ft 132 kts 99°
2026-05-07 14:45 66.88925 -49.59479 11046 ft 133 kts 99°
2026-05-07 14:46 66.88758 -49.57129 11046 ft 133 kts 99°
2026-05-07 14:46 66.88601 -49.54830 11044 ft 134 kts 99°
2026-05-07 14:46 66.88452 -49.52495 11041 ft 134 kts 98°
2026-05-07 14:46 66.88309 -49.50151 11042 ft 134 kts 98°
2026-05-07 14:47 66.88170 -49.47806 11048 ft 134 kts 98°
2026-05-07 14:47 66.88028 -49.45461 11048 ft 134 kts 98°
2026-05-07 14:47 66.87882 -49.43114 11047 ft 134 kts 98°
2026-05-07 14:47 66.87733 -49.40773 11047 ft 134 kts 99°
2026-05-07 14:48 66.87580 -49.38430 11047 ft 134 kts 99°
2026-05-07 14:48 66.87427 -49.36086 11048 ft 134 kts 99°
2026-05-07 14:48 66.87274 -49.33742 11048 ft 135 kts 99°
2026-05-07 14:48 66.87121 -49.31389 11048 ft 135 kts 99°
2026-05-07 14:49 66.86969 -49.29037 11048 ft 135 kts 99°
2026-05-07 14:49 66.86817 -49.26683 11048 ft 135 kts 98°
2026-05-07 14:49 66.86666 -49.24336 11047 ft 134 kts 99°
2026-05-07 14:49 66.86515 -49.21988 11047 ft 134 kts 99°
2026-05-07 14:50 66.86363 -49.19641 11048 ft 134 kts 99°
2026-05-07 14:50 66.86209 -49.17299 11047 ft 134 kts 99°
2026-05-07 14:50 66.86055 -49.14956 11047 ft 134 kts 99°
2026-05-07 14:50 66.85900 -49.12611 11048 ft 134 kts 99°
2026-05-07 14:51 66.85745 -49.10267 11048 ft 134 kts 99°
2026-05-07 14:51 66.85590 -49.07920 11048 ft 135 kts 99°
2026-05-07 14:51 66.85433 -49.05563 11051 ft 136 kts 99°
2026-05-07 14:51 66.85275 -49.03199 11051 ft 136 kts 99°
2026-05-07 14:52 66.85119 -49.00831 11050 ft 136 kts 99°
2026-05-07 14:52 66.84962 -48.98469 11061 ft 136 kts 99°
2026-05-07 14:52 66.84806 -48.96101 11061 ft 136 kts 99°
2026-05-07 14:52 66.84648 -48.93737 11061 ft 136 kts 99°
2026-05-07 14:53 66.84493 -48.91407 11061 ft 136 kts 99°
2026-05-07 14:53 66.84335 -48.89048 11061 ft 135 kts 99°
2026-05-07 14:53 66.84177 -48.86688 11061 ft 135 kts 99°
2026-05-07 14:53 66.84017 -48.84324 11061 ft 136 kts 99°
2026-05-07 14:54 66.83857 -48.81966 11060 ft 135 kts 99°
2026-05-07 14:54 66.83696 -48.79611 11061 ft 135 kts 99°
2026-05-07 14:54 66.83535 -48.77252 11061 ft 135 kts 99°
2026-05-07 14:54 66.83373 -48.74898 11061 ft 135 kts 99°
2026-05-07 14:55 66.83211 -48.72544 11061 ft 135 kts 99°
2026-05-07 14:55 66.83050 -48.70187 11061 ft 135 kts 99°
2026-05-07 14:55 66.82888 -48.67833 11061 ft 135 kts 99°
2026-05-07 14:55 66.82727 -48.65480 11064 ft 135 kts 99°
2026-05-07 14:56 66.82566 -48.63119 11064 ft 136 kts 99°
2026-05-07 14:56 66.82404 -48.60759 11064 ft 136 kts 99°
2026-05-07 14:56 66.82241 -48.58398 11064 ft 136 kts 99°
2026-05-07 14:56 66.82077 -48.56041 11064 ft 136 kts 99°
2026-05-07 14:57 66.81912 -48.53680 11064 ft 136 kts 99°
2026-05-07 14:57 66.81746 -48.51321 11064 ft 136 kts 99°
2026-05-07 14:57 66.81581 -48.48964 11064 ft 136 kts 99°
2026-05-07 14:57 66.81415 -48.46606 11064 ft 136 kts 99°
2026-05-07 14:58 66.81249 -48.44252 11064 ft 136 kts 99°
2026-05-07 14:58 66.81084 -48.41896 11064 ft 136 kts 99°
2026-05-07 14:58 66.80919 -48.39539 11064 ft 136 kts 99°
2026-05-07 14:58 66.80753 -48.37184 11064 ft 136 kts 99°
2026-05-07 14:59 66.80586 -48.34825 11064 ft 136 kts 99°
2026-05-07 14:59 66.80419 -48.32473 11064 ft 136 kts 99°
2026-05-07 14:59 66.80250 -48.30119 11085 ft 135 kts 99°
2026-05-07 14:59 66.80078 -48.27786 11086 ft 135 kts 99°
2026-05-07 15:00 66.79901 -48.25481 11077 ft 132 kts 99°
2026-05-07 15:00 66.79729 -48.23209 11077 ft 133 kts 99°
2026-05-07 15:00 66.79565 -48.20880 11079 ft 133 kts 98°
2026-05-07 15:00 66.79411 -48.18554 11079 ft 134 kts 98°
2026-05-07 15:01 66.79256 -48.16224 11080 ft 134 kts 98°
2026-05-07 15:01 66.79093 -48.13907 11080 ft 133 kts 98°
2026-05-07 15:01 66.78931 -48.11590 11078 ft 133 kts 98°
2026-05-07 15:01 66.78767 -48.09288 11077 ft 132 kts 99°
2026-05-07 15:02 66.78595 -48.06993 11077 ft 134 kts 99°
2026-05-07 15:02 66.78418 -48.04681 11079 ft 134 kts 100°
2026-05-07 15:02 66.78292 -48.03113 11078 ft 135 kts 99°
2026-05-07 15:02 66.78116 -48.00760 11078 ft 136 kts 99°
2026-05-07 15:03 66.77938 -47.98429 11077 ft 134 kts 99°
2026-05-07 15:03 66.77765 -47.96101 11077 ft 134 kts 99°
2026-05-07 15:03 66.77590 -47.93807 11080 ft 132 kts 98°
2026-05-07 15:03 66.77429 -47.91530 11080 ft 134 kts 98°
2026-05-07 15:04 66.77268 -47.89204 11080 ft 133 kts 98°
2026-05-07 15:04 66.77094 -47.86882 11080 ft 135 kts 99°
2026-05-07 15:04 66.76929 -47.84529 11069 ft 137 kts 98°
2026-05-07 15:04 66.76770 -47.82183 11062 ft 135 kts 98°
2026-05-07 15:05 66.76618 -47.79844 11067 ft 134 kts 98°
2026-05-07 15:05 66.76444 -47.77548 11068 ft 132 kts 99°
2026-05-07 15:05 66.76263 -47.75247 11066 ft 135 kts 99°
2026-05-07 15:05 66.76081 -47.72923 11066 ft 133 kts 99°
2026-05-07 15:06 66.75899 -47.70595 11066 ft 135 kts 99°
2026-05-07 15:06 66.75714 -47.68274 11066 ft 135 kts 99°
2026-05-07 15:06 66.75530 -47.65966 11068 ft 134 kts 99°
2026-05-07 15:06 66.75352 -47.63651 11069 ft 133 kts 99°
2026-05-07 15:07 66.75173 -47.61360 11080 ft 132 kts 99°
2026-05-07 15:07 66.74994 -47.59078 11080 ft 134 kts 99°
2026-05-07 15:07 66.74824 -47.56767 11084 ft 133 kts 98°
2026-05-07 15:07 66.74667 -47.54438 11083 ft 136 kts 98°
2026-05-07 15:08 66.74501 -47.52090 11083 ft 135 kts 99°
2026-05-07 15:08 66.74326 -47.49776 11083 ft 135 kts 99°
2026-05-07 15:08 66.74147 -47.47457 11080 ft 133 kts 100°
2026-05-07 15:08 66.73959 -47.45167 11072 ft 134 kts 100°
2026-05-07 15:09 66.73771 -47.42866 11072 ft 135 kts 100°
2026-05-07 15:09 66.73590 -47.40557 11072 ft 134 kts 99°
2026-05-07 15:09 66.73406 -47.38241 11069 ft 135 kts 100°
2026-05-07 15:09 66.73225 -47.35927 11069 ft 135 kts 99°
2026-05-07 15:10 66.73045 -47.33618 11069 ft 134 kts 99°
2026-05-07 15:10 66.72865 -47.31310 11069 ft 132 kts 99°
2026-05-07 15:10 66.72684 -47.29042 11069 ft 132 kts 99°
2026-05-07 15:10 66.72510 -47.26742 11069 ft 134 kts 99°
2026-05-07 15:11 66.72342 -47.24427 11070 ft 134 kts 99°
2026-05-07 15:11 66.72173 -47.22086 11069 ft 135 kts 99°
2026-05-07 15:11 66.71996 -47.19759 11069 ft 135 kts 99°
2026-05-07 15:11 66.71807 -47.17451 11069 ft 135 kts 100°
2026-05-07 15:12 66.71609 -47.15136 11069 ft 134 kts 101°
2026-05-07 15:12 66.71411 -47.12854 11069 ft 132 kts 100°
2026-05-07 15:12 66.71224 -47.10559 11069 ft 135 kts 99°
2026-05-07 15:12 66.71042 -47.08252 11069 ft 133 kts 99°
2026-05-07 15:13 66.70868 -47.05918 11069 ft 136 kts 99°
2026-05-07 15:13 66.70693 -47.03572 11064 ft 136 kts 99°
2026-05-07 15:13 66.70512 -47.01257 11065 ft 135 kts 100°
2026-05-07 15:13 66.70320 -46.98947 11066 ft 133 kts 100°
2026-05-07 15:14 66.70133 -46.96639 11066 ft 133 kts 99°
2026-05-07 15:14 66.69946 -46.94334 11067 ft 136 kts 99°
2026-05-07 15:14 66.69760 -46.92046 11084 ft 136 kts 99°
2026-05-07 15:14 66.69580 -46.89704 11083 ft 137 kts 99°
2026-05-07 15:15 66.69399 -46.87349 11083 ft 135 kts 100°
2026-05-07 15:15 66.69208 -46.85028 11083 ft 136 kts 100°
2026-05-07 15:15 66.69019 -46.82699 11078 ft 133 kts 100°
2026-05-07 15:15 66.68819 -46.80423 11076 ft 134 kts 100°
2026-05-07 15:16 66.68623 -46.78119 11080 ft 135 kts 100°
2026-05-07 15:16 66.68427 -46.75817 11078 ft 134 kts 100°
2026-05-07 15:16 66.68238 -46.73490 11083 ft 136 kts 100°
2026-05-07 15:16 66.68055 -46.71149 11083 ft 135 kts 99°
2026-05-07 15:17 66.67874 -46.68843 11082 ft 135 kts 99°
2026-05-07 15:17 66.67687 -46.66543 11082 ft 133 kts 100°
2026-05-07 15:17 66.67494 -46.64274 11084 ft 132 kts 100°
2026-05-07 15:17 66.67306 -46.61976 11084 ft 135 kts 100°
2026-05-07 15:18 66.67120 -46.59671 11083 ft 133 kts 99°
2026-05-07 15:18 66.66931 -46.57347 11084 ft 136 kts 100°
2026-05-07 15:18 66.66736 -46.55026 11082 ft 135 kts 100°
2026-05-07 15:18 66.66535 -46.52743 11082 ft 134 kts 100°
2026-05-07 15:19 66.66340 -46.50450 11083 ft 133 kts 100°
2026-05-07 15:19 66.66143 -46.48169 11083 ft 133 kts 99°
2026-05-07 15:19 66.65954 -46.45879 11085 ft 135 kts 99°
2026-05-07 15:19 66.65768 -46.43590 11086 ft 134 kts 100°
2026-05-07 15:20 66.65574 -46.41317 11085 ft 136 kts 100°
2026-05-07 15:20 66.65388 -46.38986 11086 ft 134 kts 99°
2026-05-07 15:20 66.65196 -46.36700 11083 ft 134 kts 100°
2026-05-07 15:20 66.65007 -46.34394 11084 ft 133 kts 99°
2026-05-07 15:21 66.64817 -46.32128 11084 ft 133 kts 99°
2026-05-07 15:21 66.64627 -46.29827 11084 ft 135 kts 99°
2026-05-07 15:21 66.64437 -46.27516 11083 ft 134 kts 99°
2026-05-07 15:21 66.64244 -46.25200 11108 ft 134 kts 101°
2026-05-07 15:22 66.64038 -46.22882 11115 ft 136 kts 101°
2026-05-07 15:22 66.63828 -46.20581 11118 ft 135 kts 100°
2026-05-07 15:22 66.63623 -46.18267 11122 ft 135 kts 101°
2026-05-07 15:22 66.63410 -46.15998 11121 ft 132 kts 101°
2026-05-07 15:23 66.63205 -46.13722 11121 ft 135 kts 100°
2026-05-07 15:23 66.63004 -46.11417 11121 ft 134 kts 100°
2026-05-07 15:23 66.62815 -46.09100 11118 ft 136 kts 99°
2026-05-07 15:23 66.62633 -46.06755 11121 ft 136 kts 99°
2026-05-07 15:24 66.62443 -46.04445 11122 ft 135 kts 99°
2026-05-07 15:24 66.62255 -46.02119 11121 ft 134 kts 100°
2026-05-07 15:24 66.62058 -45.99819 11119 ft 134 kts 100°
2026-05-07 15:24 66.61856 -45.97525 11118 ft 135 kts 101°
2026-05-07 15:25 66.61656 -45.95214 11118 ft 135 kts 100°
2026-05-07 15:25 66.61457 -45.92901 11117 ft 136 kts 101°
2026-05-07 15:25 66.61250 -45.90573 11117 ft 135 kts 102°
2026-05-07 15:25 66.61032 -45.88300 11117 ft 133 kts 102°
2026-05-07 15:26 66.60818 -45.86014 11118 ft 133 kts 101°
2026-05-07 15:26 66.60597 -45.83759 11133 ft 134 kts 101°
2026-05-07 15:26 66.60382 -45.81437 11135 ft 138 kts 101°
2026-05-07 15:26 66.60170 -45.79042 11134 ft 140 kts 100°
2026-05-07 15:27 66.59974 -45.76610 11132 ft 144 kts 99°
2026-05-07 15:27 66.59778 -45.74145 11132 ft 145 kts 100°
2026-05-07 15:27 66.59573 -45.71676 11126 ft 144 kts 101°
2026-05-07 15:27 66.59357 -45.69196 11128 ft 146 kts 101°
2026-05-07 15:28 66.59129 -45.66738 11129 ft 144 kts 101°
2026-05-07 15:28 66.58903 -45.64303 11129 ft 146 kts 101°
2026-05-07 15:28 66.58673 -45.61774 11131 ft 146 kts 101°
2026-05-07 15:28 66.58458 -45.59267 11130 ft 148 kts 101°
2026-05-07 15:29 66.58238 -45.56742 11152 ft 147 kts 101°
2026-05-07 15:29 66.58013 -45.54285 11152 ft 146 kts 101°
2026-05-07 15:29 66.57787 -45.51793 11152 ft 145 kts 102°
2026-05-07 15:29 66.57551 -45.49319 11152 ft 145 kts 102°
2026-05-07 15:30 66.57316 -45.46856 11152 ft 146 kts 102°
2026-05-07 15:30 66.57082 -45.44378 11163 ft 145 kts 102°
2026-05-07 15:30 66.56853 -45.41890 11163 ft 147 kts 101°
2026-05-07 15:30 66.56638 -45.39368 11165 ft 147 kts 101°
2026-05-07 15:31 66.56413 -45.36877 11165 ft 146 kts 102°
2026-05-07 15:31 66.56178 -45.34387 11166 ft 146 kts 102°
2026-05-07 15:31 66.55950 -45.31921 11168 ft 145 kts 101°
2026-05-07 15:31 66.55733 -45.29429 11167 ft 147 kts 101°
2026-05-07 15:32 66.55524 -45.26932 11167 ft 146 kts 100°
2026-05-07 15:32 66.55307 -45.24427 11168 ft 147 kts 102°
2026-05-07 15:32 66.55074 -45.21909 11166 ft 148 kts 102°
2026-05-07 15:32 66.54831 -45.19422 11166 ft 147 kts 102°
2026-05-07 15:33 66.54582 -45.16929 11167 ft 147 kts 102°
2026-05-07 15:33 66.54339 -45.14467 11166 ft 145 kts 102°
2026-05-07 15:33 66.54101 -45.11989 11163 ft 147 kts 102°
2026-05-07 15:33 66.53879 -45.09497 11163 ft 145 kts 101°
2026-05-07 15:34 66.53663 -45.06990 11163 ft 148 kts 101°
2026-05-07 15:34 66.53432 -45.04486 11172 ft 148 kts 102°
2026-05-07 15:34 66.53186 -45.02001 11172 ft 148 kts 102°
2026-05-07 15:34 66.52951 -44.99505 11170 ft 146 kts 102°
2026-05-07 15:35 66.52710 -44.97057 11172 ft 146 kts 102°
2026-05-07 15:35 66.52465 -44.94584 11172 ft 147 kts 102°
2026-05-07 15:35 66.52227 -44.92098 11169 ft 147 kts 102°
2026-05-07 15:35 66.51984 -44.89594 11176 ft 149 kts 101°
2026-05-07 15:36 66.51751 -44.87064 11177 ft 148 kts 101°
2026-05-07 15:36 66.51518 -44.84551 11166 ft 149 kts 100°
2026-05-07 15:36 66.51290 -44.82025 11168 ft 147 kts 101°
2026-05-07 15:36 66.51053 -44.79526 11169 ft 148 kts 100°
2026-05-07 15:37 66.50819 -44.77010 11171 ft 149 kts 100°
2026-05-07 15:37 66.50590 -44.74488 11172 ft 149 kts 100°
2026-05-07 15:37 66.50360 -44.71959 11171 ft 149 kts 101°
2026-05-07 15:37 66.50121 -44.69425 11172 ft 149 kts 101°
2026-05-07 15:38 66.49865 -44.66919 11172 ft 149 kts 102°
2026-05-07 15:38 66.49605 -44.64411 11172 ft 148 kts 102°
2026-05-07 15:38 66.49343 -44.61927 11174 ft 147 kts 101°
2026-05-07 15:38 66.49095 -44.59421 11173 ft 149 kts 101°
2026-05-07 15:39 66.48856 -44.56900 11172 ft 148 kts 101°
2026-05-07 15:39 66.48624 -44.54369 11172 ft 149 kts 101°
2026-05-07 15:39 66.48395 -44.51837 11169 ft 149 kts 101°
2026-05-07 15:39 66.48159 -44.49318 11170 ft 149 kts 101°
2026-05-07 15:40 66.47919 -44.46808 11170 ft 148 kts 101°
2026-05-07 15:40 66.47666 -44.44310 11167 ft 148 kts 102°
2026-05-07 15:40 66.47410 -44.41810 11168 ft 149 kts 102°
2026-05-07 15:40 66.47152 -44.39306 11170 ft 149 kts 102°
2026-05-07 15:41 66.46906 -44.36783 11167 ft 150 kts 101°
2026-05-07 15:41 66.46667 -44.34242 11169 ft 149 kts 101°
2026-05-07 15:41 66.46425 -44.31763 11169 ft 149 kts 101°
2026-05-07 15:41 66.46179 -44.29250 11170 ft 147 kts 102°
2026-05-07 15:42 66.45922 -44.26768 11168 ft 148 kts 102°
2026-05-07 15:42 66.45668 -44.24271 11168 ft 149 kts 102°
2026-05-07 15:42 66.45421 -44.21765 11170 ft 148 kts 101°
2026-05-07 15:42 66.45186 -44.19250 11170 ft 149 kts 101°
2026-05-07 15:43 66.44944 -44.16727 11168 ft 149 kts 102°
2026-05-07 15:43 66.44687 -44.14236 11169 ft 148 kts 102°
2026-05-07 15:43 66.44423 -44.11745 11172 ft 147 kts 102°
2026-05-07 15:43 66.44157 -44.09282 11172 ft 146 kts 102°
2026-05-07 15:44 66.43900 -44.06804 11173 ft 149 kts 102°
2026-05-07 15:44 66.43644 -44.04282 11173 ft 150 kts 102°
2026-05-07 15:44 66.43392 -44.01746 11170 ft 150 kts 101°
2026-05-07 15:44 66.43144 -43.99204 11170 ft 151 kts 101°
2026-05-07 15:45 66.42898 -43.96660 11169 ft 150 kts 101°
2026-05-07 15:45 66.42650 -43.94122 11169 ft 150 kts 101°
2026-05-07 15:45 66.42400 -43.91586 11169 ft 150 kts 101°
2026-05-07 15:45 66.42144 -43.89052 11169 ft 150 kts 102°
2026-05-07 15:46 66.41622 -43.83994 11172 ft 150 kts 102°
2026-05-07 15:46 66.41356 -43.81463 11171 ft 151 kts 102°
2026-05-07 15:46 66.41091 -43.78939 11172 ft 150 kts 102°
2026-05-07 15:47 66.40826 -43.76411 11171 ft 151 kts 102°
2026-05-07 15:47 66.40562 -43.73882 11172 ft 151 kts 102°
2026-05-07 15:47 66.40301 -43.71350 11173 ft 151 kts 102°
2026-05-07 15:47 66.40043 -43.68814 11172 ft 151 kts 102°
2026-05-07 15:48 66.39785 -43.66277 11172 ft 151 kts 102°
2026-05-07 15:48 66.39526 -43.63743 11172 ft 151 kts 102°
2026-05-07 15:48 66.39264 -43.61209 11172 ft 151 kts 102°
2026-05-07 15:48 66.39001 -43.58679 11172 ft 151 kts 102°
2026-05-07 15:49 66.38737 -43.56150 11177 ft 151 kts 102°
2026-05-07 15:49 66.38472 -43.53622 11177 ft 151 kts 102°
2026-05-07 15:49 66.38207 -43.51096 11178 ft 151 kts 102°
2026-05-07 15:49 66.37940 -43.48567 11177 ft 151 kts 102°
2026-05-07 15:50 66.37674 -43.46044 11191 ft 150 kts 102°
2026-05-07 15:50 66.37408 -43.43518 11191 ft 151 kts 102°
2026-05-07 15:50 66.37141 -43.40990 11190 ft 151 kts 102°
2026-05-07 15:50 66.36965 -43.39319 11190 ft 151 kts 102°
2026-05-07 15:51 66.36700 -43.36796 11191 ft 150 kts 102°
2026-05-07 15:51 66.36434 -43.34272 11191 ft 151 kts 102°
2026-05-07 15:51 66.36080 -43.30931 11189 ft 151 kts 102°
2026-05-07 15:51 66.35812 -43.28410 11188 ft 151 kts 102°
2026-05-07 15:52 66.35542 -43.25888 11188 ft 151 kts 102°
2026-05-07 15:52 66.35267 -43.23368 11193 ft 151 kts 102°
2026-05-07 15:52 66.35075 -43.21662 11189 ft 151 kts 102°
2026-05-07 15:52 66.34800 -43.19173 11188 ft 151 kts 102°
2026-05-07 15:53 66.34523 -43.16614 11188 ft 151 kts 101°
2026-05-07 15:53 66.34260 -43.14125 11188 ft 151 kts 101°
2026-05-07 15:53 66.33998 -43.11595 11188 ft 151 kts 101°
2026-05-07 15:53 66.33738 -43.09071 11191 ft 150 kts 101°
2026-05-07 15:54 66.33458 -43.06551 11204 ft 152 kts 101°
2026-05-07 15:54 66.33176 -43.04023 11202 ft 151 kts 101°
2026-05-07 15:54 66.32881 -43.01522 11202 ft 151 kts 100°
2026-05-07 15:54 66.32598 -42.99010 11202 ft 151 kts 99°
2026-05-07 15:55 66.32334 -42.96488 11201 ft 151 kts 98°
2026-05-07 15:55 66.32086 -42.93954 11201 ft 151 kts 98°
2026-05-07 15:55 66.31840 -42.91421 11201 ft 151 kts 99°
2026-05-07 15:55 66.31584 -42.88889 11201 ft 151 kts 99°
2026-05-07 15:56 66.31312 -42.86364 11201 ft 151 kts 100°
2026-05-07 15:56 66.31023 -42.83862 11201 ft 151 kts 101°
2026-05-07 15:56 66.30729 -42.81354 11204 ft 151 kts 100°
2026-05-07 15:56 66.30448 -42.78834 11204 ft 151 kts 101°
2026-05-07 15:57 66.30157 -42.76322 11204 ft 152 kts 101°
2026-05-07 15:57 66.29877 -42.73787 11205 ft 152 kts 101°
2026-05-07 15:57 66.29596 -42.71258 11203 ft 152 kts 99°
2026-05-07 15:57 66.29324 -42.68723 11207 ft 152 kts 100°
2026-05-07 15:58 66.29041 -42.66205 11207 ft 151 kts 100°
2026-05-07 15:58 66.28763 -42.63682 11207 ft 151 kts 100°
2026-05-07 15:58 66.28494 -42.61154 11206 ft 151 kts 100°
2026-05-07 15:58 66.28211 -42.58639 11207 ft 151 kts 100°
2026-05-07 15:59 66.27940 -42.56145 11207 ft 152 kts 100°
2026-05-07 15:59 66.27656 -42.53587 11207 ft 151 kts 100°
2026-05-07 15:59 66.27372 -42.51105 11207 ft 151 kts 101°
2026-05-07 15:59 66.27078 -42.48595 11207 ft 151 kts 101°
2026-05-07 16:00 66.26781 -42.46094 11207 ft 151 kts 100°
2026-05-07 16:00 66.26507 -42.43576 11207 ft 151 kts 100°
2026-05-07 16:00 66.26226 -42.41061 11208 ft 151 kts 100°
2026-05-07 16:00 66.25953 -42.38538 11209 ft 151 kts 100°
2026-05-07 16:01 66.25681 -42.36021 11210 ft 151 kts 100°
2026-05-07 16:01 66.25397 -42.33520 11210 ft 151 kts 101°
2026-05-07 16:01 66.25108 -42.31015 11201 ft 151 kts 101°
2026-05-07 16:01 66.24813 -42.28513 11201 ft 151 kts 101°
2026-05-07 16:02 66.24527 -42.26012 11201 ft 151 kts 100°
2026-05-07 16:02 66.24250 -42.23505 11202 ft 151 kts 100°
2026-05-07 16:02 66.23967 -42.21000 11202 ft 151 kts 101°
2026-05-07 16:02 66.23682 -42.18492 11201 ft 151 kts 101°
2026-05-07 16:03 66.23391 -42.16004 11201 ft 151 kts 101°
2026-05-07 16:03 66.23104 -42.13504 11202 ft 151 kts 101°
2026-05-07 16:03 66.22796 -42.11018 11209 ft 152 kts 101°
2026-05-07 16:03 66.22467 -42.08530 11204 ft 152 kts 100°
2026-05-07 16:04 66.22160 -42.06021 11201 ft 152 kts 100°
2026-05-07 16:04 66.21843 -42.03522 11201 ft 152 kts 98°
2026-05-07 16:04 66.21595 -42.00985 11205 ft 151 kts 97°
2026-05-07 16:04 66.21352 -41.98458 11200 ft 150 kts 96°